Content
SEND FEEDBACK

Daily
Averages
Monthly
Summary
Brazil

FOZ DO IGUACU, PARAÍBA


Home > South America > Brazil > Paraíba
Elevation: 741 feet     Latitude: 25 30S     Longitude: 054 36W

WEATHER
 
SELECT A DAY
Number of Records: 184,211;   Date Range: 6/30/96 - 8/10/14
 
SHARE

PRINT THIS DATA

[ ← Previous Day ]
WEATHER ALMANAC - JULY 11, 2014
[ Next Day → ]
[ °C ]   °F
Weather ElementAverageHighLow
Temperature63.9 °F73.4 °F (3:00 pm)57.2 °F (2:00 am)
Dewpoint58.5 °F62.6 °F (7:00 pm)55.4 °F (6:00 am)
Humidity83.1 %100 % (1:00 am)56 % (3:00 pm)
Barometer30.15 in30.21 in (9:00 am)30.12 in (2:00 am)
Wind Speed7.1 mph12.7 mph (4:00 am)
Weather ElementAverage
Visibility12 mi
Wind DirectionESE (106.7 °)

Weather ElementTotal
Precipitation---
Cooling Degree Days0.3 (Base 65)
Growing Degree Days15.3 (Base 50)
Averaged from 27 records on July 11, 2014
WEATHER CONDITIONS BREAKOUT
WIND DIRECTION BREAKOUT
WEATHER BY HOUR - JULY 11, 2014
[ °C ]   °F
Local TimeTemperatureDewpointHumidityBarometerVisibilityWind DirectionWind SpeedGust SpeedPrecipitationEventsConditions
1:00 AM59.0 °F59.0 °F100 %30.15 inSSE (150°)4.6 mphClear
2:00 AM57.2 °F57.2 °F100 %30.12 inSE (130°)6.9 mphClear
3:00 AM58.0 °F57.0 °F95 %30.12 in12.0 miSE (130°)4.6 mph
3:00 AM59.0 °F57.2 °F94 %30.12 inSE (130°)4.6 mphClear
4:00 AM59.0 °F57.2 °F94 %30.12 inEast (100°)12.7 mphClear
5:00 AM59.0 °F57.2 °F94 %30.12 inEast (100°)9.2 mphClear
6:00 AM57.2 °F55.4 °F94 %30.15 inESE (110°)6.9 mphClear
7:00 AM57.2 °F55.4 °F94 %30.15 inEast (100°)9.2 mphClear
8:00 AM59.0 °F55.4 °F88 %30.18 inEast (90°)8.1 mphClear
9:00 AM60.0 °F56.0 °F81 %30.21 in12.0 miEast (90°)9.2 mphPartly Cloudy
9:00 AM60.8 °F55.4 °F82 %30.21 inEast (90°)9.2 mphClear
10:00 AM62.6 °F57.2 °F82 %30.21 inEast (90°)10.4 mphClear
11:00 AM66.2 °F57.2 °F73 %30.21 inEast (90°)12.7 mphClear
12:00 PM68.0 °F59.0 °F73 %30.21 inEast (90°)9.2 mphClear
1:00 PM69.8 °F59.0 °F68 %30.18 inEast (90°)6.9 mphClear
2:00 PM71.6 °F60.8 °F69 %30.15 inEast (100°)5.8 mphClear
3:00 PM73.0 °F61.0 °F56 %30.13 in12.0 miEast (100°)9.2 mph
3:00 PM73.4 °F60.8 °F65 %30.12 inEast (100°)9.2 mphClear
4:00 PM73.4 °F60.8 °F65 %30.12 inEast (90°)8.1 mphClear
5:00 PM73.4 °F60.8 °F65 %30.12 inEast (90°)6.9 mphClear
6:00 PM69.8 °F60.8 °F73 %30.12 inESE (120°)4.6 mphClear
7:00 PM68.0 °F62.6 °F83 %30.12 inEast (100°)3.5 mphClear
8:00 PM62.6 °F60.8 °F94 %30.12 inESE (110°)3.5 mphClear
9:00 PM61.0 °F60.0 °F93 %30.15 in12.0 miSE (130°)2.3 mph
9:00 PM60.8 °F59.0 °F94 %30.15 inSE (130°)2.3 mphClear
10:00 PM62.6 °F59.0 °F88 %30.15 inESE (120°)4.6 mphClear
11:00 PM62.6 °F59.0 °F88 %30.15 inESE (110°)8.1 mphClear
Hourly data recorded from SBFI, located miles away from Foz do Iguacu, Paraíba







STORIES FROM OUR PARTNERS